Content
SEND FEEDBACK

Daily
Averages
Monthly
Summary
United States of America

UPI, GUAM


Home > North America > United States > Guam
Elevation: 53 feet     Latitude: 13 34N     Longitude: 144 55E

WEATHER
 
SELECT A DAY
Number of Records: 215,513;   Date Range: 1/1/95 - 12/17/14
 
SHARE

PRINT THIS DATA

[ ← Previous Day ]
WEATHER ALMANAC - OCTOBER 29, 2013
[ Next Day → ]
[ °C ]   °F
Weather ElementAverageHighLow
Temperature82.3 °F86 °F (11:54 am)77 °F (1:54 am)
Dewpoint76.6 °F78.8 °F (10:42 pm)75 °F (2:54 am)
Humidity83.2 %96 % (1:54 am)74 % (11:54 am)
Barometer29.88 in29.95 in (10:04 pm)29.82 in (2:54 am)
Wind Speed9.1 mph16.1 mph (2:02 pm)
Wind Gust21.9 mph (2:17 pm)
Weather ElementAverage
Visibility9.8 mi
Wind DirectionE (90.9 °)

Weather ElementTotal
Precipitation0.04 in
Cooling Degree Days16.5 (Base 65)
Growing Degree Days31.5 (Base 50)
Averaged from 32 records on October 29, 2013
WEATHER CONDITIONS BREAKOUT
WIND DIRECTION BREAKOUT
WEATHER BY HOUR - OCTOBER 29, 2013
[ °C ]   °F
Local TimeTemperatureDewpointHumidityBarometerVisibilityWind DirectionWind SpeedGust SpeedPrecipitationEventsConditions
1:54 AM77.0 °F75.9 °F96 %29.83 in10.0 miCalmClear
2:54 AM77.0 °F75.0 °F94 %29.82 in10.0 miCalmClear
3:54 AM78.1 °F75.9 °F93 %29.83 in10.0 miESE (110°)6.9 mphClear
4:54 AM79.0 °F75.9 °F90 %29.84 in10.0 miESE (110°)5.8 mphClear
5:54 AM79.0 °F77.0 °F94 %29.86 in10.0 miESE (110°)4.6 mphClear
6:16 AM78.8 °F75.2 °F89 %29.89 in10.0 miESE (110°)4.6 mphScattered Clouds
6:54 AM80.1 °F77.0 °F90 %29.89 in10.0 miEast (100°)4.6 mphPartly Cloudy
7:54 AM82.9 °F77.0 °F82 %29.90 in10.0 miEast (90°)8.1 mphClear
8:54 AM84.0 °F77.0 °F79 %29.91 in10.0 miEast (90°)10.4 mphScattered Clouds
9:54 AM84.0 °F75.9 °F76 %29.93 in10.0 miEast (100°)11.5 mph17.3 mphScattered Clouds
10:11 AM82.4 °F77.0 °F84 %29.94 in10.0 miESE (110°)10.4 mphMostly Cloudy
10:22 AM84.2 °F77.0 °F79 %29.94 in10.0 miESE (110°)11.5 mphScattered Clouds
10:54 AM84.9 °F77.0 °F77 %29.91 in10.0 miEast (100°)11.5 mphScattered Clouds
11:54 AM86.0 °F77.0 °F74 %29.88 in10.0 miEast (100°)15.0 mphScattered Clouds
12:18 PM86.0 °F77.0 °F74 %29.90 in10.0 miEast (80°)13.8 mphMostly Cloudy
12:54 PM84.9 °F77.0 °F77 %29.86 in10.0 miEast (80°)15.0 mphMostly Cloudy
1:09 PM84.2 °F75.2 °F74 %29.87 in10.0 miESE (110°)12.7 mphScattered Clouds
1:54 PM86.0 °F77.0 °F74 %29.84 in10.0 miESE (110°)13.8 mphScattered Clouds
2:02 PM84.2 °F77.0 °F79 %29.86 in10.0 miEast (90°)16.1 mph20.7 mphMostly Cloudy
2:17 PM86.0 °F77.0 °F74 %29.86 in10.0 miESE (110°)15.0 mph21.9 mphScattered Clouds
2:54 PM84.9 °F77.0 °F77 %29.82 in10.0 miESE (110°)12.7 mph18.4 mphScattered Clouds
3:54 PM82.0 °F78.1 °F88 %29.82 in7.0 miEast (90°)9.2 mph0.00 inRainLight Rain
4:54 PM84.0 °F77.0 °F79 %29.83 in10.0 miESE (110°)8.1 mph0.00 inPartly Cloudy
5:54 PM82.0 °F77.0 °F85 %29.85 in10.0 miESE (110°)4.6 mphPartly Cloudy
6:54 PM82.0 °F78.1 °F88 %29.87 in10.0 miEast (90°)4.6 mphPartly Cloudy
7:54 PM81.0 °F75.0 °F82 %29.90 in10.0 miEast (90°)5.8 mphClear
8:54 PM81.0 °F75.0 °F82 %29.91 in10.0 miEast (90°)9.2 mphPartly Cloudy
9:54 PM82.0 °F77.0 °F85 %29.92 in10.0 miEast (80°)10.4 mphScattered Clouds
10:04 PM82.4 °F75.2 °F79 %29.95 in7.0 miEast (80°)8.1 mphMostly Cloudy
10:42 PM80.6 °F78.8 °F94 %29.94 in10.0 miENE (70°)9.2 mph0.02 inMostly Cloudy
10:54 PM81.0 °F78.1 °F91 %29.92 in10.0 miEast (80°)9.2 mph0.02 inMostly Cloudy
11:54 PM81.0 °F75.0 °F82 %29.91 in10.0 miEast (90°)8.1 mphClear
Hourly data recorded from PGUM, located miles away from Upi, Guam







STORIES FROM OUR PARTNERS